Location: Briis
(48.6240°N, 2.1211°E)
Time: 06:48:59
(UTC+00:00)

Cosmos 2278 Rocket - Pass Details

Date: 25 September 2020
Orbit: 842 x 845 km, 71.0° (Epoch: 19 October)

Event Time Altitude Azimuth Distance (km) Brightness Sun altitude
Rises 04:32:49 0° 334° (NNW) 3,411 5.2 -12.3°
Reaches altitude 10° 04:35:24 10° 341° (NNW) 2,473 4.6 -11.9°
Maximum altitude 04:40:49 44° 53° (NE) 1,157 3.5 -11.0°
Drops below altitude 10° 04:46:12 10° 125° (SE) 2,461 5.3 -10.1°
Sets 04:48:45 0° 132° (SE) 3,393 5.9 -9.7°
